Location: Asheville, NC
(35.6000°N, 82.5500°W)
Time: 03:43:53
(UTC-04:00)

STRAND 1 - Pass Details

Date: 09 January 2018
Orbit: 769 x 780 km, 98.5° (Epoch: 24 June)

Event Time Altitude Azimuth Distance (km) Brightness Sun altitude
Exits shadow 19:03:31 12° 130° (SE) 2,169 ? -17.7°
Drops below altitude 10° 19:04:09 10° 136° (SE) 2,317 ? -17.8°
Sets 19:07:11 0° 155° (SSE) 3,241 ? -18.4°
